[[{"header":{"parameterUnit":"m.s-1","parameterCategory":1,"la1":30.2991,"la2":30.254,"lo1":-89.0895,"lo2":-89.0444,"dy":0.0017,"dx":0.0017,"nx":28,"ny":28,"refTime":"2024-05-14T09:00:00:Z","depth":0,"parameterNumber":2,"parameterNumberName":"U-component_of_WINDS"},"data":[0,0,0,0,0,0,0,0,0,0,0,0,0,0,0,0,0,0,0,0,0,0,0,0,0,0,0,0,0,0,0,0,0,0,0,0,0,0,0,0,0,0,0,0,0,0,0,0,0,0,0,0,0,0,0,0,0,0,0.5123,0.5123,0,0.5157,0.5157,0.5157,0.5111,0.5109,0.5108,0.5106,0.5144,0.5147,0.5149,0,0,0,0,0,0,0,0,0,0,0,0,0,0.5023,0.5025,0.5123,0.5123,0.5124,0.5157,0.5157,0.5158,0.5111,0.5109,0.5107,0.5105,0.5143,0.5146,0.5149,0,0,0,0,0,0,0,0,0,0,0,0,0,0.5062,0.5026,0.5123,0.5105,0.5103,0.5157,0.5157,0.5158,0.5112,0.5109,0.5107,0.5104,0.5142,0.5146,0.515,0.5223,0,0,0.5162,0.5163,0,0,0,0,0,0,0,0,0.506,0.5066,0.5107,0.5106,0.5105,0.5127,0.5136,0.518,0.5112,0.5109,0.5106,0.5103,0.5141,0.5145,0.5156,0.5225,0.5227,0.5162,0.5164,0.5166,0.5167,0,0,0,0,0,0,0,0.5058,0.5065,0.5136,0.5108,0.5106,0.5096,0.5099,0.5144,0.5138,0.5109,0.5106,0.511,0.514,0.5153,0.5157,0.5227,0.5162,0.5165,0.5168,0.5169,0.536,0.5363,0,0,0,0,0,0,0.5056,0.5063,0.5135,0.5137,0.5076,0.51,0.5103,0.5122,0.5138,0.5138,0.5112,0.5108,0.5147,0.5153,0.5158,0.5247,0.5166,0.5169,0.5172,0.5358,0.5361,0.5364,0,0,0,0,0,0,0.5055,0.5063,0.5134,0.5099,0.5107,0.5104,0.5126,0.5124,0.5138,0.514,0.5139,0.5126,0.5146,0.5153,0.5208,0.5247,0.5171,0.5175,0.5354,0.5359,0.5362,0.5424,0,0,0,0,0,0,0.5052,0.5063,0.509,0.51,0.5109,0.5182,0.5129,0.5127,0.5144,0.5139,0.5153,0.5153,0.5144,0.5202,0.5212,0.5251,0.5178,0.5351,0.5356,0.5361,0.5419,0.543,0.544,0,0,0,0,0,0.5048,0.5106,0.5092,0.5101,0.5143,0.5184,0.519,0.5177,0.5147,0.5175,0.5177,0.5153,0.5241,0.5208,0.5218,0.526,0.5348,0.5355,0.5361,0.5414,0.5428,0.5439,0,0,0,0,0,0,0.5102,0.5107,0.5091,0.5154,0.5169,0.5177,0.5211,0.5192,0.5217,0.5211,0.5195,0.5199,0.5258,0.5264,0.5227,0.5333,0.529,0.5299,0.5327,0.534,0.535,0.5348,0.5181,0,0,0,0,0,0.5121,0.5153,0.5156,0.5211,0.522,0.5214,0.5232,0.5221,0.5237,0.5243,0.5249,0.5266,0.5298,0.5319,0.5348,0.5419,0.5422,0.5452,0.5463,0.5471,0.548,0.5519,0.5533,0.5384,0.5384,0.5384,0,0,0.5161,0.5168,0.5189,0.5222,0.5233,0.5268,0.522,0.5259,0.5286,0.5249,0.5302,0.5307,0.5325,0.5388,0.5417,0.5395,0.5521,0.5479,0.5486,0.549,0.5527,0.5541,0.5554,0.5389,0.5388,0.5387,0,0,0.5251,0.5259,0.5307,0.5318,0.5334,0.533,0.5342,0.5353,0.5355,0.5407,0.5381,0.5412,0.5467,0.5481,0.5496,0.5593,0.5573,0.5603,0.5659,0.5697,0.5709,0.5719,0.5756,0.5769,0.5611,0.5611,0.5611,0,0.5299,0.535,0.5334,0.5375,0.5391,0.5359,0.5408,0.542,0.5446,0.5459,0.5434,0.5502,0.5512,0.5579,0.5603,0.5615,0.563,0.5602,0.5708,0.5719,0.5728,0.5763,0.5776,0.5615,0.5614,0.5614,0.5613,0,0.5409,0.5445,0.5481,0.5506,0.5527,0.5572,0.5563,0.5586,0.5573,0.5573,0.5627,0.5638,0.5669,0.5684,0.5672,0.5751,0.5737,0.5711,0.5667,0.5746,0.5779,0.5792,0.562,0.5619,0.5617,0.5616,0,0,0.5535,0.555,0.5564,0.5576,0.5592,0.562,0.5664,0.5694,0.5715,0.5734,0.5771,0.5818,0.5795,0.5811,0.58,0.5834,0.5913,0.5804,0.5804,0.5826,0.6002,0.6023,0.6039,0.5899,0.5901,0.5903,0.6001,0,0.5626,0.5702,0.5689,0.5763,0.5797,0.5768,0.5806,0.5821,0.5822,0.5852,0.5853,0.5887,0.5852,0.5862,0.5894,0.5897,0.5949,0.5889,0.5936,0.5938,0.5934,0.6055,0.6077,0.6169,0.6014,0.6016,0.6017,0,0.5744,0.5767,0.5844,0.5856,0.587,0.5905,0.5932,0.5961,0.5977,0.5976,0.5995,0.5978,0.6024,0.5979,0.6042,0.6002,0.602,0.6025,0.6028,0.6033,0.5983,0.6066,0.6198,0.6213,0.6037,0.6035,0.6034,0,0.583,0.588,0.5933,0.5944,0.5959,0.5985,0.5992,0.6006,0.6026,0.605,0.6063,0.6092,0.6108,0.6132,0.6125,0.6092,0.6191,0.6144,0.6192,0.6192,0.6215,0.6214,0.6355,0.6224,0.6224,0.6224,0.6224,0,0.5935,0.5984,0.5972,0.6005,0.606,0.6045,0.61,0.6104,0.6117,0.6151,0.6127,0.616,0.6147,0.618,0.6174,0.6229,0.6236,0.6237,0.6236,0.624,0.6241,0.6253,0.6247,0.6228,0.6227,0.6226,0.6225,0,0.604,0.6034,0.6091,0.6101,0.6104,0.6144,0.6153,0.6185,0.6183,0.6227,0.6237,0.6235,0.6273,0.6267,0.6308,0.6304,0.6373,0.6363,0.6368,0.6366,0.6414,0.641,0.6569,0.659,0.6445,0.6446,0.6447,0,0.6108,0.6145,0.6159,0.618,0.619,0.6224,0.6243,0.6231,0.6253,0.6275,0.6305,0.6339,0.6367,0.6428,0.6431,0.6463,0.6454,0.6508,0.6459,0.6463,0.6457,0.6456,0.646,0.6518,0.6519,0.6521,0.6522,0,0.623,0.6226,0.6254,0.6283,0.6307,0.6329,0.6349,0.6368,0.6357,0.6383,0.6421,0.6442,0.6484,0.652,0.655,0.6559,0.654,0.6537,0.655,0.6556,0.6558,0.6559,0.6396,0.6534,0.6532,0.6532,0.6531,0.653,0.632,0.6352,0.6367,0.6401,0.6414,0.6434,0.6465,0.6467,0.6498,0.6531,0.6522,0.6565,0.6583,0.6621,0.6633,0.6668,0.6648,0.6666,0.6671,0.6677,0.6683,0.6551,0.6673,0.6672,0.6672,0.6672,0.6672,0,0.6441,0.645,0.6481,0.651,0.6537,0.6515,0.6536,0.6561,0.6599,0.6616,0.6644,0.6688,0.6722,0.6729,0.6762,0.6788,0.678,0.6798,0.6796,0.6799,0.6698,0.6684,0.6804,0.6804,0.6804,0.6804,0.6804,0.6804,0.6508,0.6562,0.656,0.6621,0.6629,0.6671,0.6685,0.6704,0.6718,0.6768,0.6796,0.68,0.6814,0.6848,0.6879,0.688,0.6895,0.6916,0.6914,0.6819,0.6806,0.6794,0.6781,0.6918,0.6919,0.7012,0.7013,0.7014]},{"header":{"parameterUnit":"m.s-1","parameterCategory":1,"la1":30.2991,"la2":30.254,"lo1":-89.0895,"lo2":-89.0444,"dy":0.0017,"dx":0.0017,"nx":28,"ny":28,"refTime":"2024-05-14T09:00:00:Z","depth":0,"parameterNumber":3,"parameterNumberName":"V-component_of_WINDS"},"data":[0,0,0,0,0,0,0,0,0,0,0,0,0,0,0,0,0,0,0,0,0,0,0,0,0,0,0,0,0,0,0,0,0,0,0,0,0,0,0,0,0,0,0,0,0,0,0,0,0,0,0,0,0,0,0,0,0,0,5.8388,5.839,0,5.8552,5.8554,5.8556,5.8538,5.8535,5.8533,5.853,5.869,5.8696,5.8703,0,0,0,0,0,0,0,0,0,0,0,0,0,5.8051,5.8057,5.8388,5.839,5.8392,5.8552,5.8554,5.8556,5.8538,5.8535,5.8532,5.8529,5.8687,5.8695,5.8703,0,0,0,0,0,0,0,0,0,0,0,0,0,5.8204,5.8059,5.8388,5.8403,5.8406,5.8551,5.8554,5.8557,5.8539,5.8535,5.8531,5.8528,5.8685,5.8694,5.8704,5.8843,0,0,5.8735,5.8739,0,0,0,0,0,0,0,0,5.8195,5.8216,5.8399,5.8402,5.8406,5.8521,5.8493,5.8652,5.854,5.8488,5.853,5.8526,5.8636,5.865,5.8689,5.885,5.8857,5.8736,5.8742,5.8746,5.8749,0,0,0,0,0,0,0,5.8185,5.8209,5.8453,5.8401,5.8406,5.8398,5.8416,5.8523,5.8581,5.8492,5.8492,5.8512,5.8637,5.8679,5.8692,5.8859,5.8735,5.8744,5.875,5.8754,5.914,5.9144,0,0,0,0,0,0,5.8172,5.8201,5.8448,5.8458,5.8289,5.8408,5.8427,5.8488,5.858,5.8591,5.8515,5.851,5.8664,5.8681,5.8698,5.8864,5.8746,5.8755,5.8761,5.9136,5.9141,5.9145,0,0,0,0,0,0,5.8165,5.8194,5.8441,5.8329,5.836,5.8418,5.8486,5.8493,5.8535,5.8597,5.8607,5.8548,5.8662,5.8684,5.8807,5.8869,5.876,5.8769,5.9131,5.9137,5.9143,5.9199,0,0,0,0,0,0,5.8155,5.8192,5.8247,5.8331,5.8366,5.855,5.849,5.8499,5.8553,5.8549,5.8631,5.864,5.866,5.8792,5.8817,5.8881,5.8776,5.9125,5.9134,5.9141,5.9192,5.9206,5.9219,0,0,0,0,0,5.8143,5.8255,5.825,5.828,5.8437,5.8554,5.8574,5.8597,5.8558,5.8613,5.8653,5.8638,5.8859,5.8805,5.8832,5.8901,5.9121,5.9131,5.914,5.9186,5.9204,5.9219,0,0,0,0,0,0,5.8174,5.8266,5.8262,5.8404,5.8472,5.8551,5.862,5.8616,5.8693,5.8686,5.8708,5.8727,5.8851,5.8888,5.8826,5.9038,5.8984,5.9,5.9009,5.9027,5.904,5.9027,5.8785,0,0,0,0,0,5.8198,5.8288,5.8363,5.8481,5.8516,5.8562,5.8614,5.8626,5.8696,5.8723,5.8772,5.8838,5.8922,5.8977,5.9058,5.9198,5.9213,5.9258,5.9272,5.9283,5.9295,5.9369,5.9389,5.9177,5.9177,5.9177,0,0,5.8247,5.8309,5.8364,5.8489,5.8543,5.8632,5.8586,5.8684,5.8749,5.8737,5.8857,5.8895,5.8969,5.9101,5.9161,5.9136,5.9357,5.9295,5.9303,5.931,5.9381,5.9401,5.9419,5.9184,5.9182,5.9181,0,0,5.8382,5.844,5.8544,5.8599,5.8682,5.8712,5.8737,5.8818,5.8843,5.8964,5.8957,5.9034,5.9179,5.9232,5.9278,5.9433,5.9421,5.9459,5.9529,5.9601,5.9618,5.9633,5.9686,5.9705,5.9471,5.9471,5.9472,0,5.8432,5.857,5.8597,5.8696,5.8749,5.8746,5.8849,5.8901,5.9005,5.904,5.9012,5.9193,5.9243,5.9386,5.9424,5.9462,5.9489,5.9448,5.9614,5.9629,5.9643,5.9694,5.9714,5.9475,5.9475,5.9474,5.9474,0,5.8626,5.8722,5.8795,5.8899,5.8961,5.9062,5.91,5.916,5.9167,5.9199,5.9321,5.9381,5.9473,5.9509,5.9515,5.9652,5.9633,5.9609,5.9555,5.9667,5.9715,5.9735,5.9481,5.9479,5.9478,5.9477,0,0,5.8783,5.8901,5.8928,5.8974,5.9065,5.9138,5.9237,5.933,5.938,5.9451,5.9533,5.9656,5.9634,5.9686,5.9699,5.9763,5.9879,5.973,5.9732,5.9754,6.003,6.0046,6.0068,5.9872,5.9876,5.9879,6.0023,0,5.8925,5.9105,5.9131,5.9287,5.9374,5.9372,5.9458,5.9522,5.9555,5.9631,5.9666,5.9753,5.9719,5.975,5.9813,5.9851,5.9934,5.9842,5.9945,5.9948,5.9924,6.0094,6.0111,6.0244,6.0042,6.0045,6.0048,0,5.9115,5.9195,5.936,5.9439,5.9477,5.9554,5.9641,5.9715,5.9786,5.9805,5.9864,5.9869,5.9968,5.9912,6.0048,5.9984,6.0028,6.0053,6.0059,6.0067,6.0003,6.0104,6.0287,6.0306,6.0078,6.0075,6.0073,0,5.9209,5.9358,5.9476,5.9516,5.9612,5.9666,5.9708,5.9775,5.9829,5.9904,5.9939,6.0024,6.0069,6.0134,6.016,6.0117,6.0293,6.024,6.0309,6.0308,6.0344,6.0341,6.0534,6.0377,6.0377,6.0376,6.0376,0,5.9364,5.9464,5.952,5.9592,5.9704,5.9733,5.9842,5.9881,5.9942,6.0019,6.0023,6.0094,6.0126,6.0203,6.0224,6.0331,6.0352,6.0368,6.0372,6.0367,6.0365,6.0394,6.0384,6.0382,6.038,6.0379,6.0378,0,5.9487,5.9529,5.9657,5.9738,5.9761,5.984,5.9907,5.9976,6.0009,6.0107,6.0131,6.0182,6.0272,6.0306,6.0414,6.0428,6.0552,6.055,6.0529,6.0529,6.0596,6.0588,6.0812,6.0842,6.0668,6.0669,6.0671,0,5.9581,5.9659,5.9749,5.9803,5.9848,5.9934,5.999,6.0021,6.0078,6.0165,6.0222,6.0313,6.0386,6.0529,6.0574,6.0657,6.0655,6.0728,6.0667,6.0658,6.0652,6.0647,6.0653,6.0738,6.0739,6.0741,6.0742,0,5.9743,5.976,5.9842,5.9932,5.9999,6.007,6.0139,6.0182,6.0223,6.0287,6.038,6.0438,6.055,6.0638,6.0724,6.0763,6.0758,6.0762,6.0781,6.0775,6.0759,6.0766,6.0557,6.0755,6.0754,6.0753,6.0752,6.0752,5.9853,5.9921,5.9996,6.0086,6.0142,6.0207,6.0275,6.0318,6.0398,6.0493,6.0506,6.0606,6.0673,6.0788,6.0832,6.0908,6.0888,6.0917,6.0924,6.093,6.0934,6.075,6.0924,6.0923,6.0923,6.0923,6.0922,0,6.0012,6.006,6.0144,6.0242,6.0313,6.0307,6.0383,6.0441,6.053,6.0595,6.0668,6.0775,6.0861,6.0913,6.0999,6.105,6.1049,6.1071,6.1066,6.1074,6.0948,6.0921,6.1069,6.1069,6.1069,6.1069,6.1069,6.1069,6.0103,6.0218,6.0244,6.0386,6.0433,6.0533,6.0577,6.0635,6.0687,6.0807,6.088,6.0915,6.0974,6.1064,6.1142,6.1155,6.1185,6.1208,6.1218,6.1099,6.1083,6.1069,6.1044,6.1215,6.1215,6.1338,6.1339,6.134]}]]